Starlink 4573

operational
NORAD ID: 53623 Int'l Des: 2022-104 Owner: SPXS Country: US Constellation: starlink
LEOCIRCULAR

Starlink 4573について

説明を読み込み中...

リアルタイム位置

3D地球を読み込み中...

次回通過

高度履歴

Altitude vs Time

uPlot chart will show altitude changes over time

軌道要素

1 53623U 22104AM 26063.03873266 -.00002849 00000-0 -16091-3 0 9995
2 53623 53.2163 259.3653 0001214 89.8256 270.2875 15.08852536194895
Epoch: Mar 4, 2026 • Age: 18 hours

現在のステータス

高度 539.9 km
速度 7.60 km/s
衛星直下点 21.69°N, 5.93°W
打ち上げ日 Aug 28, 2022
運用期間 3.5 years
タイプ internet

技術仕様

分類 Payload
質量 300.00 kg
乾燥質量 290.00 kg
総質量 300.00 kg
長さ 0.20 m
直径 2.80 m
スパン 9.00 m
形状 Box + pan
製造者 SPXS
バスタイプ Starlink
フェーズステータス In Orbit
所有者/国 SPXS/US

大規模コンステレーション

Loading constellations...